Location: Newark
(23.1300°N, 73.6109°E)
Time: 11:13:03
(UTC+00:00)

N. Korean satellite - Visible Passes

Search period start: 07 April 2020 00:00
Search period end: 17 April 2020 00:00
Orbit: 454 x 507 km, 97.2° (Epoch: 06 April)

Date Brightness Start Highest point End Pass type
(mag) Time Alt. Az. Time Alt. Az. Time Alt. Az.
09 Apr 8.2 00:18:17 10° NNE 00:21:28 37° E 00:24:40 10° SSE visible
09 Apr 9.6 23:53:46 10° ENE 23:55:50 15° E 23:57:53 10° SE visible
13 Apr 8.8 00:09:23 10° NE 00:12:21 27° E 00:15:19 10° SSE visible
13 Apr 9.9 23:45:36 10° ENE 23:46:40 11° E 23:47:44 10° ESE visible
